Regional Weather Roundup
Issued by NWS

Home | Current Version | Previous Version | Graphics & Text | Print | Product List | Glossary On
Versions: 1 2 3 4 5 6 7 8 9 10 11 12 13 14 15 16 17 18 19 20 21 22 23 24 25 26 27 28 29 30 31 32 33 34 35 36 37 38 39 40 41 42 43 44 45 46 47 48 49 50
000
ASUS43 KOAX 291110
RWRNE

WEATHER ROUNDUP FOR NEBRASKA
NATIONAL WEATHER SERVICE OMAHA NE
600 AM CDT MON MAY 29 2017

NOTES: SATELLITE DATA IS BEING USED TO AUGMENT CLOUD COVER ABOVE
       12000 FEET.
       "FAIR" INDICATES FEW OR NO CLOUDS BELOW 12,000 FEET WITH NO
       SIGNIFICANT WEATHER AND/OR OBSTRUCTIONS TO VISIBILITY.

  * THESE STATIONS DO NOT REPORT WEATHER SUCH AS RAIN...SNOW OR FOG.

NEZ001>004-019>022-054>056-291200-
NEBRASKA PANHANDLE

CITY           SKY/WX    TMP DP  RH WIND       PRES   REMARKS
SCOTTSBLUFF    CLEAR     46  41  82 NW6       30.18S
ALLIANCE       CLEAR     41  39  93 W10       30.14S
CHADRON        PTCLDY    45  41  86 S7        30.14R
GORDON         FAIR      42  40  89 W7        30.12R
KIMBALL        CLEAR     46  40  79 NW8       30.22S
SIDNEY         CLOUDY    45  41  86 W12       30.19S
$$

NEZ057>060-069>072-079>082-291200-
SOUTHWEST NEBRASKA

CITY           SKY/WX    TMP DP  RH WIND       PRES   REMARKS
NORTH PLATTE   CLEAR     44  42  93 NW6       30.09R
IMPERIAL       CLEAR     51  43  74 NW10      30.14R
LEXINGTON      CLEAR     51  46  84 NW7       30.07R
MCCOOK         CLEAR     50  46  86 W12       30.10R
OGALLALA       CLEAR     48  45  88 W8        30.13S
$$

NEZ005>010-023>029-035>040-094-291200-
NORTH CENTRAL NEBRASKA

CITY           SKY/WX    TMP DP  RH WIND       PRES   REMARKS
VALENTINE      CLEAR     45  40  82 W9        30.07R
AINSWORTH      CLEAR     47  45  91 NW8       30.06R
BROKEN BOW     CLEAR     51  46  83 NW7       30.04R
O`NEILL        CLEAR     50  45  81 NW9       30.01R
ORD            CLEAR     49  44  83 NW6       30.01R
THEDFORD       CLEAR     47  45  91 W7        30.09R
$$

NEZ041-046>049-061>064-073>077-083>087-291200-
SOUTH CENTRAL NEBRASKA

CITY           SKY/WX    TMP DP  RH WIND       PRES   REMARKS
GRAND ISLAND   CLEAR     52  47  83 W8        30.02R
AURORA         CLEAR     51  46  83 W6        30.01S
HASTINGS       CLEAR     53  45  74 W10       30.04R
HEBRON         CLEAR     54  48  82 W3        30.02R
HOLDREGE       CLEAR     51  45  80 W7        30.06S
KEARNEY *      PTCLDY    54  45  71 W7        30.05S
YORK           CLEAR     52  46  82 W9        30.01S
$$

NEZ011>018-030>034-042>045-291200-
NORTHEAST NEBRASKA

CITY           SKY/WX    TMP DP  RH WIND       PRES   REMARKS
NORFOLK        CLEAR     47  43  86 SW7       29.96S
ALBION         CLEAR     49  45  87 NW7       29.99S
BLAIR          MOCLDY    56  45  66 W3        29.96R
FREMONT        CLEAR     51  45  80 NW3       29.97R
TEKAMAH        PTCLDY    53  44  71 NW6       29.95R
WAYNE          CLEAR     49  47  93 SW5       29.96R
$$

NEZ050>053-065>068-078-088>093-291200-
SOUTHEAST NEBRASKA

CITY           SKY/WX    TMP DP  RH WIND       PRES   REMARKS
LINCOLN        PTCLDY    57  47  69 W5        30.00R
OMAHA EPPLEY   PTCLDY    57  44  62 N3        29.95R
BEATRICE       PTCLDY    55  49  79 W7        29.99R
FALLS CITY     CLEAR     56  49  77 W8        29.94S
NEBRASKA CITY  PTCLDY    58  42  55 W6        29.96R
PLATTSMOUTH    CLEAR     58  46  65 NW8       29.95S
$$

NEZ044-045-051>053-067-291200-
OMAHA AREA

CITY           SKY/WX    TMP DP  RH WIND       PRES   REMARKS
OMAHA EPPLEY   PTCLDY    57  44  62 N3        29.95R
BLAIR          MOCLDY    56  45  66 W3        29.96R
FREMONT        CLEAR     51  45  80 NW3       29.97R
MILLARD        PTCLDY    54  48  82 CALM      29.96S
OFFUTT AFB     CLEAR     52  45  79 NW7       29.94R
PLATTSMOUTH    CLEAR     58  46  65 NW8       29.95S
WAHOO          FAIR      55  46  69 W7        29.97S
$$




USA.gov is the U.S. government's official web portal to all federal, state and local government web resources and services.